Wind_Speed
14 13 13 13 12 11 10 9 9 10 10 11 13 14 12 10 7 8 10 13 17 19 20 23 26 28 29 29 30 32 33 34 35 36 36 35 36 37 36 37 38 38 38 39 40 39 38 39 40 40 37 35 35 36 37 38 38 39 38 37 36 33 32 29 16 11 16 23 29 33 35 38 40 39 39 38 36 35 33 31 31 30 29 28 28
16 14 14 14 14 13 12 11 10 10 10 11 11 12 14 14 12 11 10 11 14 17 20 22 25 29 31 32 32 34 35 36 36 36 36 36 37 37 37 37 37 38 38 39 40 41 40 40 40 41 40 38 37 37 38 39 38 39 39 37 36 35 33 30 21 15 17 21 27 31 34 37 41 40 40 40 39 38 35 33 31 30 29 29 28
17 16 15 15 14 14 15 14 14 13 12 12 12 11 12 13 14 14 13 13 13 15 17 20 23 26 29 31 33 34 35 36 37 37 37 37 37 37 38 38 38 38 39 38 39 40 39 40 40 40 40 39 39 39 39 40 40 40 41 40 39 37 36 33 26 21 24 26 28 33 35 38 41 41 40 40 39 38 35 33 31 30 30 29 29
18 18 17 16 15 16 16 17 17 16 15 14 14 13 12 12 13 16 17 16 15 15 16 17 20 23 26 28 29 31 32 33 34 36 37 38 38 38 38 39 39 40 41 41 40 41 40 40 40 40 40 40 41 40 39 40 41 41 41 41 41 39 37 36 32 28 28 29 30 34 38 39 39 40 40 38 36 37 35 33 32 31 30 29 29
20 19 18 17 17 17 17 18 19 20 18 17 16 15 14 14 14 15 17 19 18 17 17 16 18 21 23 25 27 29 30 32 32 33 35 36 37 38 38 39 39 39 40 41 42 43 42 42 42 40 39 40 41 41 41 42 42 43 42 42 41 40 37 36 34 31 31 33 33 33 35 36 36 38 41 40 37 35 33 32 32 31 30 29 28
21 20 19 19 18 18 18 19 20 20 20 20 19 18 17 16 16 16 17 19 20 20 19 19 18 19 21 23 25 27 28 30 30 30 31 33 34 35 36 37 38 38 38 38 39 40 41 42 43 42 41 42 42 42 42 44 43 43 43 42 41 39 36 35 33 31 32 34 34 33 33 34 34 37 40 42 41 39 35 32 30 31 31 30 29
21 21 21 21 21 21 20 20 19 19 19 20 20 20 19 18 18 18 18 19 20 20 20 21 21 20 21 21 22 23 25 26 28 28 29 30 31 33 34 34 35 36 38 38 39 40 40 41 42 43 44 45 45 44 44 44 44 45 45 43 40 37 34 33 32 30 31 32 32 33 34 33 33 34 37 38 38 38 38 35 31 30 31 31 31
21 22 22 22 23 23 21 20 19 19 19 19 20 21 21 20 19 18 18 19 19 20 20 20 21 22 22 22 21 22 22 24 26 28 29 30 31 32 33 33 34 35 36 38 39 40 41 41 41 42 44 46 47 47 47 47 46 44 43 40 38 37 35 33 31 29 30 31 28 28 30 30 30 31 31 33 34 35 38 40 38 35 32 31 31
22 22 22 23 23 22 21 20 19 18 19 19 20 20 21 21 21 20 19 19 18 18 18 18 19 21 21 21 22 22 23 24 25 26 28 29 31 32 32 33 34 34 35 35 37 38 39 40 41 41 43 45 47 47 48 49 48 46 43 41 39 37 35 34 32 31 30 28 26 26 26 27 30 32 34 38 39 38 38 38 38 36 34 31 30
23 23 24 24 23 21 20 20 19 18 19 19 20 20 21 21 21 21 21 20 20 19 18 18 19 19 20 20 21 22 23 24 24 25 25 27 28 30 32 33 33 33 34 34 34 36 36 38 40 41 42 43 45 46 47 48 49 49 48 46 45 42 38 36 35 36 35 32 32 33 31 29 34 39 41 42 41 37 38 39 38 36 34 29 26
24 24 25 23 22 20 19 19 18 18 18 19 19 20 20 21 21 22 22 22 22 21 20 20 20 20 19 18 19 21 22 23 24 24 25 26 26 28 29 32 33 33 34 33 33 34 35 36 37 39 40 41 42 43 44 45 47 46 46 47 49 48 46 42 40 39 38 35 35 38 37 35 40 43 41 39 38 38 41 43 41 40 39 34 28
24 24 23 22 21 21 20 19 18 18 18 18 19 19 19 20 21 22 22 23 23 22 22 22 21 20 19 19 19 20 21 23 23 23 24 25 26 27 28 29 31 32 33 33 34 33 33 34 36 37 38 39 40 41 42 43 44 44 43 44 47 49 50 50 47 44 42 38 36 38 40 39 40 42 42 41 40 39 39 41 44 45 45 42 36
25 24 22 21 21 21 20 20 20 19 18 18 18 18 19 20 21 22 22 22 22 23 23 23 22 21 21 21 21 21 21 21 21 21 22 23 24 26 27 28 30 31 32 32 33 34 34 34 34 35 36 37 39 40 40 41 41 41 41 41 42 45 47 48 49 49 49 48 44 43 44 42 43 47 49 48 45 42 40 40 44 47 47 46 41
25 24 23 22 22 21 21 22 22 21 19 17 16 17 19 20 21 22 22 21 22 23 23 23 23 23 23 22 21 22 22 22 21 21 22 22 22 23 25 27 29 30 31 32 32 33 34 35 35 36 36 37 38 39 39 39 38 39 39 39 41 44 45 44 45 46 49 51 50 49 48 46 47 51 52 50 48 48 48 47 48 49 47 42 36
26 25 24 23 23 23 22 22 22 23 21 19 18 18 18 19 20 20 20 21 22 22 22 23 23 22 22 21 20 21 23 22 22 22 23 22 22 22 23 25 28 30 31 31 32 32 33 34 35 36 36 37 38 39 39 39 38 38 39 40 41 43 45 46 46 46 48 50 50 50 50 49 47 47 49 50 49 48 47 46 47 46 42 34 28
27 27 26 25 25 25 24 23 23 22 22 21 21 21 21 20 19 18 19 19 20 20 21 21 22 21 20 20 20 22 22 22 22 23 23 23 22 23 23 24 27 29 30 31 32 32 32 32 33 34 34 35 37 38 38 38 37 37 38 40 40 41 43 45 44 44 45 46 45 44 44 45 43 41 44 47 47 44 36 31 34 37 35 29 24
28 28 28 28 27 26 25 25 24 23 22 22 23 24 23 23 21 19 19 19 19 19 20 20 19 19 19 19 20 22 22 22 22 24 25 24 23 24 24 24 25 28 30 31 32 32 32 32 32 33 33 34 35 36 36 36 36 36 36 37 36 37 40 41 40 38 39 40 40 39 38 39 39 36 38 42 45 44 37 33 35 37 34 27 22
28 29 29 29 28 27 26 25 25 24 24 24 25 24 23 23 23 22 21 20 20 20 19 19 19 19 19 20 21 23 24 24 24 27 27 25 24 24 25 24 25 27 29 30 31 32 32 32 32 32 33 34 34 34 35 35 35 36 36 34 34 34 37 37 36 35 34 33 34 33 31 33 35 33 34 39 42 42 40 40 42 41 35 28 24
29 30 29 28 28 27 26 25 25 25 26 25 25 24 23 23 22 22 22 22 22 21 21 21 23 23 24 25 26 27 28 29 29 30 28 24 22 24 25 26 26 26 27 28 28 29 30 30 31 31 32 32 32 31 33 35 36 37 36 34 33 35 37 38 37 36 34 32 31 29 26 27 30 30 32 38 41 41 40 41 44 46 40 33 29
29 28 27 26 26 26 25 24 25 26 26 25 24 23 22 22 21 22 23 23 23 23 24 25 26 27 28 29 30 31 31 31 31 29 25 22 22 23 25 26 26 25 25 26 26 27 28 29 30 31 31 30 29 29 31 35 38 37 36 36 37 37 36 37 38 38 36 33 31 31 29 26 27 29 31 35 39 39 38 38 42 47 44 39 39
27 26 24 24 25 25 24 23 24 25 25 23 23 22 21 21 22 23 24 24 24 24 25 26 26 27 27 28 28 29 28 28 27 25 23 23 23 23 24 26 26 25 24 25 25 26 27 28 29 30 29 28 28 28 29 34 37 37 38 41 41 37 35 36 37 36 35 33 31 31 31 29 28 30 31 34 37 39 39 37 39 43 43 42 44
25 24 24 24 25 25 24 22 22 22 23 22 22 23 22 22 23 23 23 24 24 24 24 24 24 24 24 25 26 26 25 24 24 23 23 23 22 22 24 25 24 25 25 24 24 25 25 26 26 27 27 27 28 29 29 32 36 37 39 39 36 33 35 37 37 35 34 33 30 29 30 31 31 32 33 34 36 38 39 38 37 38 40 40 42
25 24 24 24 25 25 24 23 22 21 22 23 23 23 22 22 22 22 23 23 23 22 23 23 23 23 23 24 25 24 23 22 23 23 23 22 21 21 22 22 22 24 25 24 23 23 24 24 24 25 26 26 27 29 30 31 35 37 37 35 32 32 34 36 37 36 35 34 32 29 29 32 33 33 35 36 36 37 39 38 37 36 37 37 37
23 23 25 25 25 26 25 23 22 21 21 22 22 22 22 22 22 22 22 22 22 21 22 22 22 21 20 21 22 22 21 20 21 21 21 20 20 20 20 19 20 24 26 25 24 22 22 22 23 23 24 25 25 28 30 31 34 36 35 33 31 32 34 36 37 37 36 35 34 31 30 33 34 33 34 35 34 36 39 38 36 35 36 36 35
23 24 25 25 26 26 25 24 23 21 21 22 23 23 23 23 23 23 23 23 22 20 20 21 21 19 19 19 19 19 19 18 18 18 19 19 19 19 18 17 19 23 26 25 23 21 20 20 20 20 21 22 23 25 28 30 33 35 35 33 33 34 36 37 38 38 37 36 35 33 31 33 34 33 32 33 34 37 39 38 36 35 34 34 33
23 23 24 25 25 25 25 25 24 21 21 22 23 24 24 23 22 22 22 22 21 20 19 20 20 19 18 18 18 18 17 17 18 18 18 19 20 19 17 16 17 21 23 23 21 21 19 18 17 18 19 20 21 25 28 30 32 34 34 34 35 37 38 39 39 39 37 35 35 34 33 32 33 33 33 33 36 38 40 39 37 35 34 33 31
23 22 23 24 24 25 25 25 24 23 22 22 23 23 24 23 22 21 22 21 20 19 19 19 19 18 17 17 17 17 17 17 18 18 19 19 20 18 17 16 18 20 22 22 22 21 19 16 16 17 17 18 21 25 28 29 31 33 34 35 37 37 38 40 41 39 36 35 35 34 33 33 33 34 35 37 38 39 40 40 39 37 35 33 30
21 21 22 23 24 25 25 25 25 24 24 24 24 24 24 24 24 23 24 23 21 20 19 18 18 18 17 16 16 16 16 18 18 19 19 19 19 17 16 17 20 21 22 23 22 20 17 15 14 15 16 17 20 23 25 27 30 33 34 35 35 35 35 36 37 36 36 36 36 35 34 35 34 35 36 37 38 39 40 40 40 39 37 34 31
20 20 21 22 23 24 24 24 25 24 24 24 25 24 24 25 25 24 25 25 24 22 20 19 19 19 19 19 18 16 16 18 19 19 19 19 18 16 16 17 20 21 22 22 21 18 15 15 15 16 17 19 21 22 23 25 27 30 32 33 32 31 32 32 32 33 33 34 35 35 36 36 35 35 36 36 36 38 40 40 40 40 38 36 34
20 20 21 22 23 23 23 24 24 24 23 23 22 21 22 22 23 22 22 23 23 23 21 20 19 19 20 21 21 19 18 18 17 17 18 18 17 16 15 16 19 20 21 22 21 19 18 18 18 19 20 20 20 21 22 24 25 25 27 30 31 30 31 31 31 31 32 33 35 36 37 37 36 36 36 35 34 35 37 38 39 39 39 37 35
20 20 22 22 23 24 24 23 24 24 23 22 21 19 18 19 21 21 21 20 20 21 22 21 20 19 20 21 21 21 20 17 15 15 17 19 18 17 17 18 19 20 21 22 21 20 20 19 19 20 21 20 20 20 21 23 24 24 25 27 28 28 29 30 30 29 30 31 33 35 36 36 36 37 37 36 35 35 36 36 35 37 39 37 35
20 20 21 22 23 24 24 23 24 23 22 21 20 18 16 15 16 19 20 21 20 20 21 21 21 20 20 20 20 19 18 16 16 16 17 19 19 18 19 20 20 21 23 24 22 21 21 20 19 19 20 21 20 20 21 22 23 23 24 25 25 26 28 29 30 30 30 30 31 33 34 35 36 37 37 36 36 36 36 35 35 36 36 34 31
21 19 20 21 22 23 24 23 24 24 23 22 21 19 17 15 13 14 17 19 21 21 21 21 22 22 21 21 21 20 19 18 17 17 17 19 19 18 19 21 21 21 23 25 23 20 20 20 19 20 21 22 22 21 21 22 23 23 23 23 24 25 26 28 29 30 30 31 32 32 33 34 35 35 35 35 37 38 37 37 36 34 33 31 29
21 19 20 22 23 23 24 24 23 23 23 22 21 20 19 17 14 12 13 14 17 20 21 22 23 23 23 23 22 22 21 20 18 17 17 18 19 18 19 20 20 21 24 26 23 20 20 20 20 21 22 22 22 22 21 22 23 23 23 23 23 25 26 26 27 29 29 30 31 32 33 34 35 35 34 34 34 35 35 36 36 35 34 33 30
20 18 18 20 21 21 22 22 21 21 21 21 21 19 18 16 15 14 13 13 14 16 18 20 22 23 24 24 24 23 22 22 20 18 17 18 18 18 19 19 20 21 24 26 24 21 21 22 22 23 24 24 24 24 24 22 23 25 25 24 23 24 25 26 27 27 28 29 30 32 34 35 35 36 35 35 34 34 34 35 37 37 36 35 32
18 17 17 17 18 18 18 18 19 19 19 19 20 19 17 16 16 15 14 14 14 14 15 17 19 21 22 24 24 24 23 23 22 20 19 18 18 19 20 21 21 22 23 24 23 22 22 23 23 24 25 25 26 26 26 25 25 26 27 27 26 25 27 29 29 29 29 29 30 32 34 35 35 35 34 35 36 37 37 37 37 37 36 34 32
17 17 17 17 17 17 16 16 17 17 18 18 18 18 17 17 16 15 14 14 14 13 14 14 15 17 19 21 24 25 24 23 23 22 21 19 20 22 23 23 22 22 22 23 23 22 22 23 23 24 25 26 27 28 28 28 28 27 27 27 28 27 27 29 31 31 31 31 31 32 34 35 36 36 35 35 35 35 36 36 36 36 36 35 32
16 16 15 16 15 15 16 16 15 16 16 16 17 17 17 16 16 15 14 13 13 13 13 14 15 16 17 18 21 23 23 23 23 23 24 23 23 25 25 23 23 23 22 23 24 24 23 23 23 24 26 27 28 30 30 31 31 30 28 27 27 28 28 29 30 31 32 31 31 32 33 34 35 37 38 37 37 36 36 36 36 35 35 34 34
13 13 12 12 13 14 14 14 15 15 16 16 16 16 16 16 15 14 14 13 13 13 14 14 16 17 17 17 18 20 21 22 23 23 24 25 25 26 26 25 24 23 22 23 24 25 25 25 25 25 26 27 28 29 30 31 33 34 33 30 28 27 28 30 31 31 32 33 32 33 34 35 36 38 39 39 38 38 37 37 37 36 35 36 39
11 11 10 11 12 12 13 14 14 15 15 16 16 16 17 16 15 14 14 13 13 14 14 15 16 17 17 17 19 20 21 21 22 23 23 24 25 26 26 27 27 26 25 24 25 25 26 27 26 26 26 27 27 29 30 30 30 32 34 35 33 31 31 32 33 34 35 36 35 35 36 37 36 37 38 37 37 37 37 38 38 38 38 38 38
8 8 9 10 11 12 12 13 14 14 15 15 16 17 17 16 15 15 15 14 14 14 14 16 18 18 18 19 21 22 22 21 21 22 23 25 26 26 27 28 28 28 28 28 27 28 29 29 29 29 28 28 28 28 28 29 29 28 30 33 35 35 35 35 35 36 37 37 37 37 37 38 38 38 39 38 36 34 34 35 36 37 37 36 34
6 6 6 7 8 10 11 12 13 13 13 14 15 16 17 16 16 16 15 15 14 14 14 16 17 18 19 21 22 23 24 23 22 22 23 24 26 27 29 30 30 29 29 28 28 29 29 29 29 30 30 30 30 28 28 28 28 28 28 29 30 32 34 34 35 37 37 37 37 37 37 38 39 39 40 39 37 34 34 34 35 36 35 34 33
5 4 3 3 4 6 8 10 10 11 13 14 15 16 16 17 17 17 16 15 15 14 14 14 16 17 19 21 23 25 25 24 23 23 24 24 25 26 28 29 30 31 30 30 29 29 29 29 29 30 31 32 32 32 31 31 31 30 29 29 29 30 31 32 33 35 36 36 36 37 37 38 39 39 38 38 38 37 36 35 35 35 35 34 33
6 5 4 3 2 4 6 7 9 10 12 13 13 14 15 16 16 17 16 15 15 14 14 15 15 16 17 20 23 25 26 25 24 24 24 24 25 26 26 27 28 29 30 31 31 30 30 30 30 30 31 31 32 33 34 35 35 35 34 33 32 32 32 33 34 35 36 37 37 37 38 38 37 37 37 38 38 38 37 37 36 35 35 34 33
8 6 5 3 1 2 3 5 7 8 9 10 11 12 14 15 15 16 16 15 15 15 15 15 15 16 17 19 22 25 26 26 25 25 25 25 25 26 26 26 26 27 29 30 31 31 32 32 31 31 31 31 31 33 34 35 36 37 36 36 36 36 36 37 37 35 36 36 37 37 37 37 37 38 38 38 39 40 39 39 38 36 35 35 34
12 10 7 5 3 1 2 3 5 6 7 9 10 11 12 14 14 15 15 15 15 15 15 15 15 16 17 18 21 23 25 26 26 26 26 26 25 26 25 25 26 27 28 29 30 31 33 33 33 32 31 31 30 32 33 34 35 36 37 37 37 37 37 37 36 36 37 38 37 36 36 37 38 39 39 38 39 39 38 38 38 38 37 37 37
14 13 11 9 7 5 4 3 3 4 6 8 9 10 11 12 13 14 14 15 15 15 14 15 15 16 17 19 20 22 24 26 27 27 27 27 27 26 26 25 26 27 27 28 29 31 32 34 35 35 34 32 31 31 32 33 35 36 37 37 37 37 36 36 35 36 37 38 38 38 37 37 38 38 38 38 37 37 37 37 37 38 38 37 35
13 13 13 12 10 9 7 7 5 3 4 5 7 8 10 11 12 12 13 14 14 14 15 15 16 17 18 19 20 22 24 26 27 28 27 27 27 27 27 27 26 27 27 27 28 30 32 33 34 35 36 35 34 33 33 33 34 35 36 37 37 37 37 37 37 37 38 38 39 39 38 37 37 37 38 38 38 37 37 37 36 37 37 35 34
13 13 12 11 11 10 9 8 7 6 6 5 5 6 7 9 9 10 11 12 12 13 14 15 16 17 18 18 19 20 22 24 26 27 27 27 28 28 28 28 28 28 28 28 29 29 31 32 33 34 35 36 36 35 35 34 34 35 35 36 37 37 37 38 39 39 39 39 40 40 40 39 37 37 38 39 40 39 38 37 36 36 36 35 35
12 12 11 11 11 11 10 10 9 9 9 8 7 7 7 8 8 9 10 10 11 12 13 15 16 17 18 19 19 19 20 21 23 25 26 27 27 27 27 28 28 29 30 30 31 31 31 31 32 34 34 35 36 36 36 36 36 36 36 36 36 36 37 38 40 40 40 40 40 41 41 40 39 38 38 39 40 39 39 38 37 36 37 36 36
14 13 13 13 12 13 12 12 12 12 12 11 11 10 9 8 8 9 9 10 10 12 13 15 16 18 18 19 19 19 18 19 20 22 24 25 25 25 26 26 27 28 29 30 31 32 32 32 32 33 34 35 35 36 36 37 37 38 38 37 36 36 37 38 40 41 42 42 41 41 41 41 40 39 38 38 38 39 39 39 38 37 37 37 37
Wind_Direction
226 227 230 234 240 242 244 248 248 248 247 246 243 243 246 244 230 214 203 199 200 202 205 206 207 207 204 202 201 200 201 201 202 204 204 205 206 206 207 207 207 209 210 211 212 213 214 214 216 216 216 217 217 216 215 215 215 215 214 214 212 212 211 206 191 154 180 202 201 197 201 200 198 199 198 195 196 197 198 199 199 198 198 198 197
230 229 228 231 236 239 244 248 249 246 239 239 241 238 239 237 234 233 226 218 212 207 206 205 205 205 204 203 203 202 204 205 206 207 207 208 208 209 210 210 210 210 211 212 213 213 215 215 216 216 215 216 217 217 217 215 215 215 215 215 215 215 214 207 191 163 165 185 193 193 195 197 196 197 198 196 194 195 197 197 198 199 200 201 199
237 235 232 231 233 234 240 244 247 247 237 231 235 236 238 235 232 231 230 230 227 220 215 211 208 207 206 205 205 205 206 207 208 208 208 209 210 211 212 212 212 212 212 214 214 214 215 216 217 216 214 215 216 217 218 217 216 216 216 216 216 215 214 209 200 182 167 173 186 189 189 193 196 195 196 197 194 195 196 196 197 198 200 202 201
240 238 234 231 230 229 232 236 239 242 239 235 233 232 233 231 228 228 227 227 228 225 223 219 215 214 212 210 209 209 210 210 210 211 211 212 213 213 215 215 215 216 215 216 215 215 215 216 218 217 214 214 215 216 216 216 216 217 217 217 216 215 213 211 209 199 179 173 183 190 188 188 193 194 193 193 194 196 196 195 195 197 198 199 201
239 240 236 232 230 227 226 229 232 235 237 238 237 234 231 227 223 223 222 223 224 223 222 220 218 218 217 217 216 214 215 214 214 214 214 215 216 216 217 217 217 219 219 219 218 217 216 216 218 218 214 214 215 214 214 215 216 217 218 217 215 215 213 210 209 207 195 182 179 186 187 185 187 192 191 189 188 190 193 194 194 195 195 197 199
237 239 238 234 232 228 225 224 227 230 232 235 237 237 233 227 222 219 217 218 220 220 221 220 220 220 220 221 221 220 220 218 218 218 218 217 218 219 219 219 219 220 221 222 222 221 219 218 218 218 216 215 216 215 214 215 216 216 216 216 215 213 211 207 205 203 197 184 174 175 181 184 184 187 191 191 187 184 184 187 191 195 195 195 196
237 237 236 235 233 231 228 226 226 228 230 230 233 235 235 231 226 224 219 215 215 216 217 219 220 223 224 225 226 226 226 225 225 225 224 223 223 223 223 223 223 223 224 225 225 225 225 223 221 220 218 218 218 217 216 216 216 217 216 215 212 208 204 202 200 193 184 175 170 172 177 182 183 182 187 191 189 186 183 179 181 190 194 196 196
239 237 235 234 235 234 233 233 232 232 232 231 230 231 233 233 231 229 223 217 216 216 216 217 218 220 224 227 229 231 231 232 232 231 231 231 230 229 229 228 228 227 228 227 227 227 227 227 225 223 222 221 220 219 219 217 215 215 215 212 208 203 198 194 191 184 175 168 167 170 171 174 179 179 181 183 184 187 188 184 181 183 188 193 196
236 237 234 234 236 236 236 235 234 233 233 232 232 230 230 232 232 231 227 225 225 225 224 223 220 219 220 223 226 230 233 235 236 236 236 235 235 235 234 234 233 232 231 231 231 230 229 229 228 227 226 225 224 223 222 221 218 215 213 208 204 199 193 189 184 175 168 163 162 165 167 172 177 176 180 186 188 188 188 186 184 182 184 187 192
229 231 234 235 236 235 233 233 231 229 227 227 228 228 229 231 231 230 229 229 230 231 229 227 225 224 223 223 224 228 231 235 238 240 241 241 241 240 240 239 239 238 237 236 235 234 233 232 232 231 230 229 228 225 224 224 222 219 215 209 204 198 190 185 182 177 172 168 167 169 172 179 184 183 186 190 192 188 183 183 182 180 180 182 188
221 225 231 235 235 232 228 228 226 224 223 222 222 223 224 226 227 228 228 227 228 229 227 225 225 226 227 226 227 229 232 234 236 239 243 246 246 246 245 243 242 242 242 241 240 239 237 236 235 234 233 231 229 227 225 225 224 222 218 214 210 204 197 189 183 180 177 175 175 176 178 184 188 189 189 188 188 187 184 183 182 179 178 180 184
215 221 227 231 232 230 227 225 223 220 219 219 221 222 221 222 223 224 225 225 226 226 226 226 226 227 227 228 229 231 234 234 234 236 240 244 247 249 249 248 246 245 244 244 243 243 241 239 237 236 234 232 230 228 225 224 225 222 219 217 213 210 207 201 195 189 184 181 180 184 187 187 186 187 189 187 187 187 185 185 185 184 184 184 186
209 214 220 225 229 230 229 228 227 225 222 219 220 222 222 223 224 225 225 225 224 224 225 227 227 227 227 228 230 233 236 237 236 237 240 242 245 248 251 252 250 248 247 246 245 243 241 240 238 236 235 233 231 229 225 223 223 221 219 218 215 211 210 208 206 203 198 192 189 191 192 189 187 190 191 188 184 182 183 187 189 189 189 190 191
202 207 211 217 223 228 231 234 237 238 234 227 221 219 219 222 224 226 226 224 222 222 222 224 225 226 227 227 231 236 238 238 235 235 238 241 243 246 250 252 252 251 249 248 246 243 241 238 236 235 234 232 230 228 225 222 219 217 215 215 215 213 211 210 209 207 204 201 200 201 200 197 198 196 192 189 187 186 187 191 193 192 192 192 193
194 200 203 208 215 221 226 232 238 243 243 241 236 229 224 222 220 219 219 219 220 220 220 221 222 224 226 228 233 240 243 243 240 237 237 239 242 243 246 250 252 251 251 249 247 245 243 240 237 235 233 232 230 227 223 221 217 213 211 212 213 213 212 213 212 209 208 207 207 208 207 205 204 200 195 194 194 193 195 196 194 191 189 188 188
189 193 197 201 207 212 218 224 229 235 238 241 242 241 238 233 227 221 218 218 219 219 220 221 223 224 227 232 238 246 250 251 249 247 244 243 243 243 243 247 249 249 250 250 249 248 245 241 239 236 234 232 232 229 224 219 214 210 209 210 211 212 212 214 214 214 212 210 209 211 211 207 205 204 200 196 193 193 193 189 185 183 180 179 182
187 190 193 197 202 206 210 214 218 222 225 228 232 235 238 238 237 234 232 230 229 228 227 228 231 233 237 241 247 253 257 257 255 254 252 249 247 244 243 245 248 248 248 249 250 249 246 244 241 238 236 234 233 231 224 217 212 209 207 207 208 210 211 212 214 215 215 212 210 211 211 209 208 207 203 195 191 190 185 176 177 180 177 175 179
188 190 192 195 199 202 205 208 211 213 215 218 221 224 227 230 232 233 235 236 236 236 237 237 239 242 244 247 249 253 256 256 255 254 251 249 248 248 246 245 246 247 246 247 248 247 246 245 242 239 238 237 235 231 224 217 211 209 207 204 203 206 207 207 207 210 212 211 209 208 209 208 207 205 201 196 194 194 191 187 184 180 178 181 182
192 193 194 195 197 199 202 205 208 208 208 210 213 216 218 221 223 223 225 228 229 230 231 232 234 236 238 240 242 244 247 250 251 250 246 243 245 248 248 244 242 242 242 242 244 244 244 243 241 239 238 237 235 230 223 217 213 211 207 202 201 206 206 202 201 202 203 202 202 200 199 199 200 200 198 198 199 200 201 198 191 184 183 186 180
197 196 195 194 195 197 200 202 203 203 203 204 205 208 211 211 213 214 215 218 220 222 223 226 228 230 232 234 236 238 240 244 247 247 241 238 243 248 246 242 239 239 239 239 239 240 240 240 240 239 237 235 234 231 224 219 216 212 207 203 205 208 205 200 199 198 196 195 195 194 192 191 194 196 195 196 200 201 200 199 198 193 189 187 184
197 194 192 192 193 196 198 199 200 200 199 199 199 201 204 205 207 208 209 212 214 216 218 221 223 227 230 232 235 237 239 242 244 241 237 240 247 247 242 239 238 237 237 237 237 237 238 238 239 238 236 233 233 231 226 222 218 214 210 210 211 210 203 197 195 194 192 192 191 190 189 189 190 192 191 193 198 199 197 200 203 198 194 193 193
193 190 189 191 192 194 196 197 197 197 196 195 195 197 201 204 206 206 207 209 210 211 214 216 219 224 229 231 233 234 236 238 237 237 240 245 248 245 239 239 240 238 236 236 236 236 237 238 238 240 239 235 233 232 230 226 221 216 215 214 212 207 201 196 190 187 187 188 186 184 184 185 185 186 187 190 195 197 198 202 205 201 201 204 202
189 186 188 190 191 193 194 193 194 194 194 194 194 196 199 202 204 205 205 206 207 208 211 213 216 219 221 223 226 227 229 232 236 240 244 245 245 242 238 238 242 239 234 235 237 238 240 241 243 245 245 240 234 231 231 227 221 218 216 212 207 202 198 191 186 184 185 184 183 183 184 183 183 182 183 187 192 195 198 203 206 204 205 209 209
184 184 187 190 192 194 194 192 192 192 193 194 194 195 198 199 201 203 205 206 206 207 208 209 210 211 212 214 218 222 228 235 240 243 243 242 242 240 236 236 240 238 235 236 238 239 241 244 245 245 244 241 236 232 231 227 221 217 213 206 201 198 193 187 184 183 182 182 183 184 184 183 182 181 183 186 190 195 198 201 204 206 208 211 213
181 184 187 189 192 193 193 193 193 192 192 194 195 194 195 196 197 200 202 204 204 204 203 204 204 205 207 211 214 221 231 240 244 244 242 241 239 238 235 235 237 237 235 236 237 239 243 246 246 246 246 244 238 231 228 225 220 216 209 200 195 194 192 187 183 182 183 183 183 182 184 185 184 184 186 189 190 192 194 198 201 204 208 211 214
183 185 187 190 192 192 192 193 194 194 194 196 198 197 195 194 195 198 199 201 203 203 201 201 202 204 208 212 215 218 225 234 240 242 241 239 238 239 238 235 235 236 236 235 237 242 244 245 246 247 247 243 236 227 223 221 217 212 205 199 195 195 192 188 184 184 184 183 181 180 182 184 184 184 187 191 192 191 192 195 197 200 204 208 210
184 185 188 190 191 192 193 193 193 195 196 198 202 203 201 199 199 200 201 201 203 204 203 201 202 204 207 210 212 213 216 226 235 239 239 238 239 240 239 235 233 231 229 230 234 237 238 240 246 249 248 244 237 228 221 215 210 204 200 198 198 196 195 192 190 187 186 183 180 179 181 182 182 183 185 189 192 193 194 196 195 195 199 203 202
186 188 189 190 192 194 195 194 193 195 197 200 202 202 201 201 202 204 206 205 203 204 204 204 204 205 205 206 206 206 210 219 230 237 238 236 238 240 238 236 234 228 224 224 227 228 229 234 237 238 233 227 222 220 214 207 200 195 195 197 197 196 194 193 190 188 186 184 180 177 178 180 180 182 184 188 191 192 193 194 193 193 194 195 195
188 189 189 191 193 195 196 197 197 196 198 201 204 206 206 206 208 211 214 215 214 213 212 212 211 211 211 213 211 205 207 217 231 241 243 240 240 242 240 238 236 231 226 223 219 213 212 215 214 211 209 206 206 207 204 198 193 191 191 194 194 193 190 188 187 186 185 182 179 176 175 177 179 181 184 187 189 190 189 190 192 192 190 191 194
185 188 189 192 193 193 195 198 199 199 199 200 204 210 214 216 218 220 222 224 226 226 225 224 223 222 220 223 225 225 226 230 238 246 246 244 244 246 244 240 237 233 226 220 214 205 199 197 199 199 199 199 201 202 198 193 190 189 189 191 192 191 189 187 187 187 185 182 180 177 176 177 178 180 182 185 186 186 186 189 191 190 188 190 195
184 188 191 192 193 193 194 196 197 200 201 201 201 204 211 218 224 226 229 231 233 233 233 233 233 231 230 232 234 234 234 238 243 248 248 247 246 245 241 236 233 228 219 210 204 200 196 193 193 195 197 200 203 203 198 194 193 190 188 190 192 191 189 188 188 187 185 182 180 179 178 178 178 180 182 184 184 183 185 189 191 191 191 192 196
189 191 192 193 194 195 195 196 196 197 198 199 200 201 201 208 218 225 229 232 235 237 236 235 235 235 235 237 236 234 235 239 243 245 246 245 245 244 239 233 229 224 216 207 200 198 196 194 192 192 194 200 204 204 200 196 196 194 189 188 191 193 191 191 190 189 186 183 181 181 181 181 182 183 184 184 182 181 184 188 191 192 193 195 198
197 194 192 191 192 194 195 195 194 194 195 195 197 198 199 201 205 213 221 228 234 237 237 236 235 235 234 234 236 238 242 244 241 240 242 243 243 243 237 232 227 219 210 204 201 199 197 195 194 194 196 200 203 204 202 199 198 197 194 191 192 194 195 194 193 191 189 187 186 184 184 185 185 184 183 183 184 183 185 188 191 192 193 195 198
203 199 196 194 192 193 195 195 194 195 196 196 196 198 202 204 203 201 203 212 224 231 234 234 234 234 234 234 236 239 241 240 237 236 239 241 241 240 236 232 228 220 210 206 205 204 198 196 196 197 198 200 202 202 202 200 197 197 197 196 195 195 197 196 194 192 191 189 188 187 187 187 186 184 182 183 185 186 187 189 190 191 194 196 198
202 201 201 199 197 197 198 199 199 199 198 199 201 202 203 205 205 203 201 203 211 222 228 229 231 232 233 233 234 235 236 235 234 234 235 237 238 236 231 226 223 219 213 210 210 209 204 201 199 199 199 200 200 201 201 199 196 196 198 198 196 194 194 195 195 193 192 190 189 189 189 189 188 187 185 184 186 188 190 192 193 194 196 197 198
200 202 201 202 203 203 203 204 204 205 205 206 207 207 206 206 206 208 210 212 215 221 226 227 229 232 234 233 232 232 232 231 230 230 231 233 234 228 221 217 217 217 214 213 213 214 213 209 206 203 201 200 200 201 201 199 198 198 199 199 197 195 194 195 195 195 193 193 193 192 190 190 190 189 188 189 191 193 194 195 196 197 199 199 198
203 204 204 206 208 207 207 208 209 210 211 211 209 208 208 208 209 209 212 214 218 223 227 226 223 224 228 230 230 229 228 229 230 231 231 231 229 225 219 216 216 216 216 216 216 217 218 217 212 207 204 203 201 201 201 200 199 199 201 201 200 198 198 198 197 196 195 195 195 194 192 192 192 191 190 191 194 196 198 198 198 200 202 201 198
209 210 210 211 210 209 209 209 209 210 211 209 208 207 207 207 209 211 212 215 219 223 227 226 221 218 218 221 225 225 224 223 225 228 227 224 221 219 219 219 218 217 218 218 217 217 220 221 218 213 209 207 205 203 201 199 198 197 199 202 203 202 201 200 199 198 197 196 196 196 195 194 194 194 195 195 197 199 200 200 200 200 201 200 199
206 210 213 214 214 214 213 210 208 208 207 205 205 206 206 207 209 209 211 214 218 221 225 227 228 226 222 217 217 217 215 212 213 215 218 218 216 216 217 218 219 219 220 221 220 219 220 221 221 218 215 212 210 207 204 202 199 196 196 198 201 203 202 200 198 198 198 199 199 198 197 197 198 198 199 200 201 201 200 201 202 202 200 201 203
195 201 206 210 214 217 216 214 212 209 205 203 204 204 205 208 208 208 209 212 215 220 224 228 233 235 229 218 211 208 207 208 210 210 211 214 216 216 216 217 217 217 219 220 220 220 221 222 222 221 220 218 215 212 209 206 204 200 197 195 197 200 203 202 201 200 201 202 202 200 200 201 201 200 202 203 204 204 203 202 204 204 205 206 208
180 187 194 202 208 211 213 214 214 212 210 209 208 207 208 209 209 209 212 214 216 220 224 229 237 240 236 227 220 213 210 212 214 213 212 214 215 216 218 219 219 218 217 217 217 219 221 222 221 220 221 221 219 216 213 211 208 206 203 200 198 199 201 203 204 203 203 204 203 202 202 203 202 202 204 206 206 206 205 205 206 207 208 209 210
158 169 179 191 201 207 212 216 218 217 216 215 214 214 214 214 212 212 214 217 220 222 225 231 238 240 238 234 229 222 219 218 217 216 217 217 218 219 220 222 223 223 221 219 218 218 220 221 221 219 219 219 218 216 215 214 212 210 210 208 204 201 201 203 204 205 205 205 204 204 204 204 204 205 206 206 205 204 206 208 208 208 209 210 210
134 139 153 173 197 212 223 230 228 222 219 220 222 223 223 221 218 217 217 220 224 226 227 233 239 239 237 236 232 226 224 223 221 219 219 219 220 222 224 224 225 226 226 225 223 221 221 223 223 222 221 220 218 216 215 216 216 215 213 211 209 207 206 206 205 206 205 205 205 205 206 206 205 205 206 205 204 204 206 207 207 208 209 209 209
113 113 120 138 183 221 233 237 233 229 229 230 229 229 228 226 224 222 221 222 226 228 231 236 239 238 235 232 228 225 226 227 227 225 223 221 222 224 226 227 228 228 228 228 227 225 224 224 225 225 224 223 222 220 218 218 218 217 215 213 211 210 211 211 209 208 207 206 206 206 207 207 206 205 206 205 204 203 204 205 205 206 207 207 206
99 100 100 102 127 231 246 247 243 240 238 236 233 232 231 229 227 226 225 225 228 231 234 237 239 238 234 229 224 223 226 230 232 231 229 227 227 226 226 227 228 228 229 230 230 228 227 227 227 227 225 224 223 223 221 221 220 220 219 217 215 214 215 216 215 213 211 210 209 208 207 207 206 206 207 206 205 203 204 204 204 203 203 204 204
94 92 90 82 67 13 317 293 271 256 247 239 235 235 234 232 231 231 230 229 231 232 235 238 238 236 234 229 225 224 227 231 234 235 233 232 232 231 230 228 227 228 229 231 230 230 231 231 230 230 228 226 224 222 222 222 223 222 223 222 222 221 222 221 219 217 215 214 212 210 208 208 207 208 208 207 206 205 204 204 203 202 202 203 205
89 88 87 82 75 63 38 6 325 286 267 251 241 239 238 236 236 235 234 235 236 236 237 240 240 238 237 233 228 227 230 232 234 236 236 235 235 235 234 231 229 227 228 229 229 230 231 232 233 234 233 232 229 226 224 223 223 224 224 225 225 226 226 224 222 220 218 216 214 212 210 209 208 208 208 207 206 205 205 204 204 204 204 204 204
80 78 78 75 71 67 56 43 31 358 316 285 266 257 251 245 243 241 238 239 240 239 239 242 242 241 240 238 233 231 232 234 237 238 238 237 237 237 236 235 233 231 229 227 227 228 229 230 232 233 235 235 234 232 230 228 226 226 227 227 227 226 225 224 223 221 220 218 216 214 213 211 210 208 207 206 206 205 204 204 204 204 203 203 203
69 68 68 65 63 60 53 46 40 27 6 344 318 299 284 271 262 255 249 246 245 244 244 244 244 244 244 243 239 235 232 232 236 239 240 240 239 238 237 237 236 234 232 230 227 226 227 228 229 230 231 233 234 234 234 233 231 230 230 230 230 229 226 224 223 222 220 218 217 215 214 213 212 210 208 207 206 206 205 204 204 203 201 201 202
54 54 56 55 52 50 47 42 37 29 19 8 353 335 318 302 290 281 272 265 259 255 253 251 249 248 247 246 245 241 236 232 234 238 241 242 241 239 238 237 236 235 234 233 232 230 228 228 228 229 229 230 231 232 233 233 233 232 232 232 232 230 228 226 225 223 220 217 216 215 214 213 212 211 209 208 207 206 205 204 203 202 200 200 200
44 43 44 42 40 40 41 38 32 26 21 14 7 359 348 335 319 307 297 287 277 271 267 262 258 255 253 251 250 248 245 241 240 240 242 243 243 241 239 238 236 234 234 234 234 234 232 230 230 230 230 230 230 230 231 231 232 232 233 233 232 231 229 227 226 224 221 218 217 215 213 212 211 210 209 208 206 206 205 204 203 201 200 200 199
Height
711 712 713 714 714 715 715 716 717 718 720 721 721 721 722 723 725 726 728 730 732 735 737 740 742 744 746 749 752 755 757 761 763 766 768 771 774 776 778 779 781 784 787 789 792 794 797 799 801 804 807 809 811 813 814 816 818 821 823 824 826 827 828 829 830 835 839 841 843 846 849 853 857 861 863 866 870 873 876 879 881 883 886 888 890
710 710 711 712 712 713 713 714 716 717 719 720 721 721 721 722 724 726 728 730 732 735 738 740 742 744 746 748 751 754 756 759 761 764 766 768 771 773 775 777 779 781 783 785 788 790 793 795 796 800 802 804 806 809 811 813 815 817 819 821 824 825 826 827 828 831 835 838 841 843 846 850 853 856 859 861 865 868 872 875 878 881 884 886 888
707 708 710 710 711 712 712 713 714 716 718 719 720 721 722 723 724 725 728 730 732 735 737 740 742 744 746 747 750 752 754 757 759 761 763 765 768 770 772 774 776 778 779 781 784 787 789 791 792 795 798 799 801 803 806 809 811 813 815 817 820 821 823 824 825 827 830 834 838 839 842 846 849 852 856 859 863 866 869 872 875 878 881 884 886
705 706 707 708 710 711 711 713 714 715 717 719 720 721 722 723 724 725 727 729 732 734 736 739 741 743 745 747 749 751 753 755 757 759 761 762 765 767 769 771 773 774 776 777 780 782 785 787 788 791 793 795 796 798 801 804 807 809 811 813 815 817 819 821 822 823 825 829 834 836 838 841 846 849 853 857 861 863 866 869 872 875 878 881 884
703 704 705 706 708 709 710 712 713 715 716 718 719 721 722 724 725 726 728 729 731 733 735 737 739 742 744 745 748 749 751 753 755 757 759 760 762 764 766 768 769 771 773 774 776 777 779 781 784 787 789 790 792 793 795 798 801 804 807 809 811 813 815 817 819 820 821 824 829 834 838 841 844 847 849 852 856 860 864 866 869 872 875 878 882
700 701 703 704 705 707 708 710 712 714 715 716 718 719 721 723 725 726 728 729 731 732 734 736 738 740 742 744 746 748 749 751 753 755 757 759 760 762 763 764 766 767 769 771 773 774 775 776 779 781 783 785 788 789 791 793 796 799 801 804 807 810 812 814 815 817 819 821 826 832 838 841 842 845 847 848 850 853 858 863 867 870 871 874 878
698 699 700 701 703 704 706 708 710 712 713 714 716 717 719 722 723 725 727 728 730 732 733 735 736 738 740 742 744 746 748 749 751 753 755 756 758 759 760 762 763 764 766 767 769 771 772 773 775 776 778 780 782 785 787 789 792 794 796 800 803 806 808 811 813 815 816 820 824 829 834 839 842 844 847 849 851 851 853 857 862 866 869 871 874
695 696 697 698 700 701 703 705 707 709 711 712 714 715 717 719 721 723 725 726 728 730 732 733 734 736 738 740 742 744 745 747 748 750 752 754 755 756 758 759 760 761 763 764 766 767 768 770 771 772 773 775 777 780 782 784 787 790 793 797 800 802 805 808 811 813 815 818 823 828 832 837 841 845 848 850 850 850 849 851 854 860 865 869 872
692 694 694 695 696 698 701 702 704 706 707 709 711 713 715 717 719 721 722 723 725 727 729 730 731 733 734 736 738 740 742 744 745 747 749 751 752 753 755 756 757 758 759 760 762 763 764 766 767 768 770 771 774 776 777 779 781 785 788 792 796 798 801 804 807 811 814 817 822 828 833 835 837 840 842 842 841 842 845 849 853 857 862 867 870
690 691 691 692 694 696 699 700 701 703 705 706 709 710 712 714 716 718 719 721 723 724 726 728 729 730 731 733 734 736 738 740 742 744 746 748 750 751 752 753 754 755 756 757 758 759 760 762 763 765 766 768 770 772 775 777 778 780 782 785 788 793 796 800 803 805 809 812 816 820 826 830 830 830 832 833 837 839 841 845 850 855 860 865 868
688 689 689 691 693 695 697 698 700 702 703 705 707 709 711 712 714 715 717 719 720 722 724 725 726 728 729 730 731 733 734 736 739 742 744 746 748 749 750 751 752 753 753 754 755 756 757 758 760 762 764 765 767 769 772 774 776 778 780 781 782 785 788 792 797 800 802 806 809 812 815 818 821 823 827 831 835 836 837 840 844 849 853 857 861
685 686 687 689 691 693 695 697 699 700 701 703 705 707 709 710 711 713 714 716 718 720 721 723 724 726 727 728 729 731 732 734 737 739 742 744 746 747 748 749 749 750 750 751 752 753 754 755 757 758 760 762 764 767 768 770 773 776 779 781 782 782 782 783 787 791 795 798 803 805 806 809 813 818 821 825 830 833 836 838 839 841 844 847 851
683 684 685 687 688 690 692 694 696 698 699 701 703 704 706 707 708 710 711 713 715 716 718 720 722 723 725 726 728 729 730 732 734 737 739 741 743 744 745 746 746 747 747 748 749 750 751 752 753 755 756 758 761 763 765 767 770 773 776 779 782 784 785 784 783 784 786 789 793 796 798 801 805 808 810 815 823 829 834 836 835 836 839 841 845
680 682 683 685 687 688 689 690 691 693 695 698 700 701 702 704 705 707 708 710 712 714 716 718 719 721 723 724 726 727 728 729 731 734 736 738 740 741 742 743 743 744 744 745 746 746 747 748 749 750 752 754 756 758 761 763 766 769 772 775 778 781 784 786 785 785 785 785 787 789 792 794 796 799 803 808 814 820 824 826 829 832 837 841 846
678 680 681 683 685 686 688 688 689 689 691 693 695 696 698 700 703 705 706 708 709 711 713 715 717 719 720 722 723 724 724 726 728 731 733 735 737 739 740 740 740 741 741 742 742 743 744 745 746 747 748 750 751 754 757 759 761 765 767 770 772 775 779 781 782 782 783 783 784 786 789 791 794 797 801 803 808 815 821 823 826 832 839 845 849
675 677 679 681 683 685 686 687 688 688 689 690 690 691 693 695 698 701 703 705 707 709 711 712 714 716 717 719 720 720 721 724 726 728 730 733 735 736 737 737 737 737 737 738 739 739 741 742 743 745 746 747 748 751 753 756 758 761 763 765 768 771 773 777 780 782 782 783 785 787 790 792 795 799 802 804 807 816 825 831 834 837 841 846 849
672 674 676 678 680 683 685 686 687 688 688 689 689 689 690 691 694 696 698 700 702 704 706 708 709 711 713 714 716 717 718 721 723 725 728 730 732 733 733 733 733 733 733 734 735 736 737 739 740 742 743 745 746 749 751 753 755 757 759 762 765 767 769 772 777 782 784 784 785 787 790 793 796 799 803 807 809 813 820 828 833 835 838 843 846
667 669 672 674 677 680 683 684 686 686 687 688 688 689 690 691 693 694 696 697 698 700 702 704 705 707 709 711 713 715 717 719 722 724 726 729 730 730 730 729 729 729 729 731 732 732 734 736 737 739 740 742 744 746 748 750 752 754 756 759 761 763 765 768 773 778 783 785 786 787 790 793 796 798 802 806 809 811 813 819 826 831 836 840 842
662 665 667 670 674 677 680 682 683 684 685 686 687 689 691 692 694 695 697 698 699 701 703 704 706 708 709 712 714 716 717 719 721 722 724 726 727 727 727 726 725 726 727 728 729 730 731 732 734 736 738 740 742 744 746 747 748 750 752 755 758 758 759 763 768 773 778 782 783 785 789 791 794 798 800 803 806 810 812 816 821 825 831 836 840
657 661 664 667 671 674 676 678 679 681 682 684 686 689 690 692 694 695 697 699 700 702 703 705 706 708 709 712 713 714 716 717 719 720 721 723 723 723 723 723 723 724 725 726 726 727 728 729 731 733 735 737 739 741 743 745 746 747 750 751 751 753 756 760 764 768 774 778 781 783 786 788 791 795 799 801 804 808 812 816 819 821 825 831 835
654 658 661 664 667 670 672 674 676 678 680 682 684 687 689 691 693 694 696 698 699 701 702 703 705 706 708 710 711 712 714 715 716 717 718 719 719 719 719 720 720 721 722 723 724 724 725 726 728 730 733 735 737 739 741 743 744 746 746 746 746 750 754 758 762 766 771 776 779 782 783 785 788 791 794 798 801 805 810 814 818 821 824 826 829
651 655 658 661 664 667 669 671 673 675 677 679 682 684 686 689 691 692 694 696 697 699 700 701 703 705 706 707 708 709 711 711 713 714 714 715 715 716 716 717 717 719 719 720 721 722 723 724 726 728 730 733 735 737 739 741 743 744 744 745 747 750 752 755 759 763 767 772 776 779 780 782 785 787 789 793 798 803 808 813 817 821 824 826 827
649 652 655 658 661 664 666 668 670 672 674 676 679 681 683 686 688 690 692 693 695 696 698 699 701 702 703 704 705 706 707 708 709 710 710 711 711 712 713 714 714 716 716 717 719 720 721 723 724 726 728 730 732 734 736 738 740 741 743 745 746 748 750 753 756 759 764 768 771 775 777 778 781 784 786 788 793 799 806 811 816 820 823 826 828
647 650 653 656 659 662 664 666 668 670 672 674 676 679 681 683 685 687 689 691 692 693 694 696 697 698 699 700 701 702 704 705 706 706 707 707 708 709 710 710 712 713 714 715 717 718 719 720 722 724 726 727 730 732 733 736 737 739 741 743 744 746 748 750 752 755 760 763 765 769 773 775 777 781 785 787 790 796 803 809 814 817 820 824 826
645 647 650 653 656 659 662 664 666 668 670 672 674 676 678 680 682 684 686 687 689 690 691 692 693 695 696 697 698 699 700 702 702 703 703 704 705 706 707 707 709 710 711 713 714 716 717 718 720 722 723 725 728 729 731 733 734 736 738 739 741 743 744 746 749 752 755 757 759 763 768 772 775 778 783 788 791 794 799 805 810 814 817 821 824
643 645 648 651 654 657 659 661 664 666 668 670 672 674 676 678 680 681 683 684 685 687 688 689 690 691 693 694 695 696 697 699 699 699 700 701 702 703 704 705 707 708 710 711 712 714 715 716 718 720 721 723 725 726 728 730 732 734 736 736 737 738 740 742 744 747 750 753 755 759 764 770 775 777 781 786 790 792 795 800 805 809 814 818 822
640 642 646 649 651 654 656 659 661 663 666 668 670 672 674 675 677 678 679 681 682 683 684 686 687 688 689 690 692 693 694 695 695 696 697 698 699 700 701 703 704 705 706 708 709 711 712 714 716 718 719 721 722 724 725 727 729 731 733 733 734 735 737 738 740 743 747 750 753 757 762 768 773 775 777 782 787 789 791 794 800 805 809 815 820
637 640 643 646 649 651 654 656 658 660 663 665 667 669 671 672 673 674 675 676 678 680 681 682 683 684 686 687 689 690 690 691 691 693 694 695 696 697 699 701 702 703 704 704 706 707 709 712 714 716 718 720 721 723 725 726 727 728 729 731 733 734 736 738 740 742 746 748 751 754 758 764 769 772 775 780 784 785 786 791 797 801 805 811 816
635 638 641 644 646 649 651 653 655 658 660 662 664 666 667 668 670 671 672 673 675 676 678 679 680 681 683 684 685 686 686 687 688 690 691 692 693 694 696 698 699 701 702 703 704 705 707 709 712 714 716 718 720 722 723 725 726 727 727 729 731 734 735 737 739 742 744 747 749 751 754 760 765 769 774 779 782 782 784 789 794 798 802 807 811
633 636 638 641 644 646 648 651 653 655 658 660 662 664 665 666 667 668 670 671 673 674 675 676 677 679 680 681 682 682 683 683 686 688 689 690 691 692 693 695 696 699 700 701 702 703 704 706 709 711 714 717 719 720 722 723 725 726 727 728 730 732 734 735 738 741 743 745 746 748 752 757 761 765 771 776 778 780 784 789 792 795 798 803 806
631 633 635 638 640 643 646 648 650 653 655 657 659 661 663 665 666 667 668 669 670 672 673 674 675 676 677 678 679 680 681 682 683 685 686 687 688 689 691 692 694 695 697 698 700 701 701 703 706 708 711 714 717 718 720 722 723 725 726 728 729 731 732 734 737 740 742 744 746 747 750 754 758 762 767 772 774 778 783 789 792 794 796 799 802
627 629 632 635 637 640 643 645 648 651 653 655 657 659 661 662 663 664 665 666 668 669 670 672 673 674 675 676 677 677 679 680 681 682 684 685 686 687 688 690 691 693 694 695 697 697 698 700 703 706 709 712 714 716 718 720 722 724 725 726 728 729 731 733 736 739 741 743 745 747 750 753 756 760 765 768 771 776 781 786 789 792 794 797 799
624 627 630 633 635 638 641 643 645 647 649 651 654 655 657 659 660 661 663 664 665 666 667 669 670 671 672 673 674 675 676 678 679 680 681 683 684 685 686 688 690 691 693 693 694 695 696 698 701 703 706 709 711 714 716 717 720 722 723 725 726 728 731 733 736 738 740 742 744 746 749 752 756 760 763 765 768 773 778 781 785 789 792 795 797
622 625 628 630 633 635 637 640 642 643 645 647 649 651 653 655 656 659 660 661 662 663 664 665 667 668 669 671 672 673 674 675 677 678 679 681 682 683 685 686 688 690 691 691 691 693 694 696 698 701 703 706 709 711 713 715 717 720 722 724 725 727 730 733 735 737 739 741 743 745 748 752 755 757 760 763 767 772 776 778 781 784 787 790 793
622 625 626 628 630 632 634 636 638 639 641 643 645 647 650 652 654 656 657 658 660 660 661 662 663 665 666 668 669 670 671 673 675 676 677 679 680 681 683 684 685 687 688 688 689 691 691 693 695 697 699 702 705 707 710 712 714 716 719 722 723 725 728 731 733 735 737 739 742 744 747 750 753 754 757 760 765 769 773 775 777 779 782 785 789
620 623 624 626 627 628 630 631 633 635 637 639 642 644 647 649 651 653 655 656 657 658 659 660 661 662 663 664 666 667 669 670 672 674 675 676 678 679 680 681 682 683 685 686 687 688 689 690 692 693 695 698 700 703 706 708 711 713 716 718 720 722 724 727 730 733 736 738 740 743 745 748 750 753 755 759 762 765 768 771 773 775 779 782 785
618 619 621 622 623 625 627 628 630 632 634 636 639 642 644 646 648 651 653 654 655 656 657 658 659 660 660 661 663 664 666 668 670 672 672 674 675 676 677 678 679 680 681 682 684 686 687 688 690 691 693 694 696 698 701 703 706 709 712 715 716 718 721 724 726 729 732 735 738 741 743 745 747 750 753 756 760 763 765 767 769 772 776 779 782
615 617 618 620 622 623 624 626 627 629 631 634 636 638 641 643 645 648 650 652 653 655 656 656 656 657 657 658 660 662 664 666 667 668 669 670 671 672 673 675 676 677 678 679 681 683 684 686 687 689 691 691 692 694 696 697 699 702 706 711 713 715 717 720 723 726 729 732 735 738 740 742 744 747 750 753 756 758 761 763 766 769 773 776 778
614 615 617 619 620 622 623 624 626 627 629 631 633 635 638 640 642 645 647 649 651 652 653 654 654 654 655 657 658 660 661 662 662 663 665 666 666 668 669 671 673 674 676 677 678 680 681 683 684 686 688 689 690 691 693 693 694 694 697 703 708 712 714 716 719 723 726 729 732 735 737 739 741 743 746 749 751 753 756 759 762 766 769 770 771
612 614 616 618 619 621 623 624 625 626 628 629 631 633 635 637 639 642 644 646 648 649 651 652 652 652 654 655 656 657 658 658 658 659 660 661 663 664 665 666 667 669 671 674 675 677 678 680 682 683 685 687 688 689 691 692 693 692 693 694 699 705 709 712 714 717 721 724 727 730 733 736 738 741 743 745 747 749 751 754 758 762 765 767 769
611 613 614 616 618 620 622 623 624 625 626 628 629 631 632 634 637 639 641 642 644 646 648 649 650 651 653 654 654 655 656 656 656 657 657 657 659 660 660 661 662 664 666 668 670 672 674 675 677 679 681 683 685 687 688 690 691 692 693 692 693 697 701 706 709 712 715 719 722 725 728 731 733 735 737 740 743 747 750 753 756 759 762 765 767
610 611 613 615 617 619 620 622 623 624 626 627 628 629 631 632 634 636 637 639 641 642 644 646 648 649 651 652 653 654 654 654 654 655 655 655 656 656 656 657 658 659 661 664 665 668 670 671 672 674 675 677 680 683 685 687 688 690 692 693 693 694 697 700 704 707 710 714 717 720 723 726 728 730 732 735 740 744 747 750 753 756 759 762 764
609 610 612 614 616 617 619 621 622 624 625 625 626 628 629 630 632 633 634 636 638 639 641 643 645 647 649 650 651 652 652 651 651 652 652 652 653 653 653 654 655 656 658 659 661 664 666 667 668 669 670 672 674 676 679 682 684 685 687 689 691 693 695 698 700 703 706 709 712 716 719 721 723 726 728 732 735 739 743 746 749 752 754 757 760
609 610 612 613 615 617 619 620 622 623 624 625 626 627 628 629 630 631 632 633 634 636 638 640 642 644 646 648 649 651 650 649 649 648 649 649 649 650 651 652 653 654 655 655 657 660 661 663 664 665 666 668 670 671 673 675 677 679 681 683 686 688 690 693 695 698 701 705 708 711 714 717 720 723 725 728 731 734 737 740 743 746 749 753 756
608 610 612 614 616 617 618 620 621 622 623 624 625 626 627 628 629 629 630 630 631 632 634 636 638 641 643 645 647 648 648 648 647 646 646 646 646 647 648 649 651 652 652 653 654 655 656 658 660 661 663 664 666 667 669 671 672 674 676 678 679 680 683 686 690 695 698 701 704 707 710 713 716 718 721 723 726 728 731 733 736 740 743 747 750
609 610 612 614 616 617 618 619 619 620 621 622 624 624 625 626 627 627 628 628 628 628 630 632 634 637 640 642 643 645 645 646 646 645 644 643 643 644 645 647 648 649 649 650 651 652 652 653 655 656 658 660 662 663 665 667 668 670 672 673 674 675 678 682 687 691 694 697 699 703 706 708 710 713 716 718 721 724 726 728 731 733 736 740 743
609 611 612 614 615 616 617 618 619 620 621 622 623 623 624 624 625 625 626 626 625 626 627 628 631 633 636 638 640 641 642 643 643 643 642 641 641 641 642 643 644 645 646 647 648 649 650 650 650 651 653 655 657 659 661 662 664 666 667 668 669 670 674 678 682 686 689 692 695 698 701 703 705 708 711 714 717 720 722 724 726 728 731 735 738
610 611 612 613 614 615 616 617 618 619 620 621 622 623 623 623 623 623 623 623 623 623 624 625 628 630 632 634 636 637 638 639 640 640 640 639 639 639 639 640 641 642 643 644 645 646 646 647 647 648 648 650 652 654 656 657 659 661 661 662 663 665 669 674 678 681 685 688 691 694 697 699 701 704 706 709 712 714 716 719 721 723 727 730 734
611 612 612 613 614 614 615 616 617 617 618 619 620 620 621 621 621 621 621 621 621 621 622 623 625 627 629 631 632 633 634 635 636 637 637 636 636 636 636 636 637 639 640 640 641 642 643 644 645 645 646 647 648 649 650 652 654 655 656 657 659 661 666 670 674 677 681 684 686 689 692 695 697 699 701 703 705 708 711 713 716 718 722 726 729
614 614 614 614 614 614 615 615 616 616 617 617 618 618 619 619 619 619 619 619 619 619 621 622 624 625 626 628 629 629 630 631 631 632 633 633 633 633 633 633 633 634 636 637 637 638 639 640 641 642 643 644 645 646 647 648 649 651 652 654 656 659 663 667 670 673 676 679 682 684 687 690 693 695 696 698 700 702 705 707 710 713 717 720 723
617 617 617 616 616 616 616 616 616 616 617 617 618 618 618 618 617 617 617 617 618 618 620 621 623 624 624 625 626 626 626 626 627 628 629 629 630 630 630 630 630 631 632 633 634 634 635 635 637 638 639 640 641 643 644 644 646 647 649 651 654 657 660 663 667 669 672 675 677 680 682 685 687 689 690 692 694 696 699 702 705 708 711 714 718